TimeCDT,TemperatureF,Dew PointF,Humidity,Sea Level PressureIn,VisibilityMPH,Wind Direction,Wind SpeedMPH,Gust SpeedMPH,PrecipitationIn,Events,Conditions,WindDirDegrees,DateUTC
12:15 AM,51.8,42.8,71,30.25,9.0,Calm,Calm,-,N/A,,Clear,0,2013-10-29 05:15:00
12:35 AM,51.8,42.8,71,30.26,8.0,Calm,Calm,-,N/A,,Clear,0,2013-10-29 05:35:00
12:55 AM,50.0,42.8,76,30.26,7.0,Calm,Calm,-,N/A,,Clear,0,2013-10-29 05:55:00
1:15 AM,48.2,41.0,76,30.25,5.0,Calm,Calm,-,N/A,,Clear,0,2013-10-29 06:15:00
1:35 AM,48.2,41.0,76,30.25,5.0,Calm,Calm,-,N/A,,Mostly Cloudy,0,2013-10-29 06:35:00
1:55 AM,50.0,42.8,76,30.25,6.0,ENE,3.5,-,N/A,,Overcast,70,2013-10-29 06:55:00
2:15 AM,50.0,42.8,76,30.25,6.0,Calm,Calm,-,N/A,,Overcast,0,2013-10-29 07:15:00
2:35 AM,51.8,42.8,71,30.25,5.0,Calm,Calm,-,N/A,,Overcast,0,2013-10-29 07:35:00
2:55 AM,51.8,44.6,76,30.25,5.0,Calm,Calm,-,N/A,,Overcast,0,2013-10-29 07:55:00
3:15 AM,51.8,44.6,76,30.25,5.0,ENE,3.5,-,N/A,,Overcast,70,2013-10-29 08:15:00
3:35 AM,51.8,44.6,76,30.25,6.0,East,3.5,-,N/A,,Overcast,80,2013-10-29 08:35:00
3:55 AM,53.6,44.6,72,30.25,5.0,Calm,Calm,-,N/A,,Overcast,0,2013-10-29 08:55:00
4:15 AM,53.6,44.6,72,30.25,5.0,Calm,Calm,-,N/A,,Overcast,0,2013-10-29 09:15:00
4:35 AM,53.6,46.4,77,30.26,7.0,Calm,Calm,-,N/A,,Overcast,0,2013-10-29 09:35:00
4:55 AM,53.6,46.4,77,30.25,7.0,ESE,3.5,-,N/A,,Overcast,110,2013-10-29 09:55:00
5:15 AM,53.6,46.4,77,30.27,7.0,Calm,Calm,-,N/A,,Overcast,0,2013-10-29 10:15:00
5:35 AM,53.6,46.4,77,30.26,8.0,Calm,Calm,-,N/A,,Overcast,0,2013-10-29 10:35:00
5:55 AM,53.6,46.4,77,30.26,7.0,Calm,Calm,-,N/A,,Overcast,0,2013-10-29 10:55:00
6:15 AM,53.6,44.6,72,30.26,7.0,Calm,Calm,-,N/A,,Overcast,0,2013-10-29 11:15:00
6:35 AM,53.6,46.4,77,30.25,7.0,East,3.5,-,N/A,,Overcast,80,2013-10-29 11:35:00
6:55 AM,53.6,44.6,72,30.24,7.0,Calm,Calm,-,N/A,,Overcast,0,2013-10-29 11:55:00
7:15 AM,53.6,46.4,77,30.24,7.0,ESE,3.5,-,N/A,,Overcast,120,2013-10-29 12:15:00
7:35 AM,55.4,46.4,72,30.24,7.0,East,3.5,-,N/A,,Overcast,90,2013-10-29 12:35:00
7:55 AM,55.4,46.4,72,30.25,6.0,Calm,Calm,-,N/A,,Overcast,0,2013-10-29 12:55:00
8:15 AM,55.4,46.4,72,30.25,7.0,Calm,Calm,-,N/A,,Overcast,0,2013-10-29 13:15:00
8:35 AM,55.4,46.4,72,30.25,8.0,East,4.6,-,N/A,,Mostly Cloudy,90,2013-10-29 13:35:00
8:55 AM,57.2,48.2,72,30.26,10.0,ESE,4.6,-,N/A,,Partly Cloudy,120,2013-10-29 13:55:00
9:15 AM,59.0,48.2,67,30.26,10.0,ESE,6.9,-,N/A,,Clear,120,2013-10-29 14:15:00
9:35 AM,60.8,50.0,68,30.27,10.0,SSE,6.9,-,N/A,,Clear,150,2013-10-29 14:35:00
9:55 AM,60.8,51.8,72,30.27,10.0,SE,5.8,-,N/A,,Scattered Clouds,130,2013-10-29 14:55:00
10:15 AM,62.6,51.8,68,30.28,10.0,SSE,4.6,-,N/A,,Mostly Cloudy,150,2013-10-29 15:15:00
10:35 AM,62.6,51.8,68,30.26,10.0,ESE,6.9,-,N/A,,Mostly Cloudy,120,2013-10-29 15:35:00
10:55 AM,62.6,51.8,68,30.24,10.0,SE,8.1,-,N/A,,Partly Cloudy,140,2013-10-29 15:55:00
11:15 AM,64.4,51.8,64,30.23,10.0,SE,6.9,-,N/A,,Clear,140,2013-10-29 16:15:00
11:35 AM,64.4,51.8,64,30.23,10.0,SE,5.8,-,N/A,,Clear,140,2013-10-29 16:35:00
11:55 AM,64.4,51.8,64,30.24,10.0,ESE,3.5,-,N/A,,Mostly Cloudy,110,2013-10-29 16:55:00
12:15 PM,64.4,53.6,68,30.24,10.0,East,3.5,-,N/A,,Overcast,100,2013-10-29 17:15:00
12:35 PM,64.4,53.6,68,30.22,10.0,ESE,8.1,-,N/A,,Mostly Cloudy,110,2013-10-29 17:35:00
12:55 PM,66.2,53.6,64,30.20,10.0,SE,10.4,-,N/A,,Partly Cloudy,130,2013-10-29 17:55:00
1:15 PM,66.2,53.6,64,30.18,10.0,ESE,5.8,-,N/A,,Partly Cloudy,120,2013-10-29 18:15:00
1:35 PM,66.2,53.6,64,30.19,10.0,SE,3.5,-,N/A,,Partly Cloudy,140,2013-10-29 18:35:00
1:55 PM,68.0,53.6,60,30.18,10.0,South,5.8,-,N/A,,Clear,170,2013-10-29 18:55:00
2:15 PM,68.0,53.6,60,30.17,10.0,SSE,6.9,-,N/A,,Partly Cloudy,150,2013-10-29 19:15:00
2:35 PM,68.0,53.6,60,30.16,10.0,SE,9.2,-,N/A,,Partly Cloudy,140,2013-10-29 19:35:00
2:55 PM,68.0,53.6,60,30.14,10.0,SE,8.1,-,N/A,,Mostly Cloudy,130,2013-10-29 19:55:00
3:15 PM,68.0,53.6,60,30.14,10.0,SSE,5.8,-,N/A,,Mostly Cloudy,160,2013-10-29 20:15:00
3:35 PM,69.8,55.4,60,30.14,10.0,SSE,5.8,-,N/A,,Scattered Clouds,150,2013-10-29 20:35:00
3:55 PM,69.8,55.4,60,30.14,10.0,SE,6.9,-,N/A,,Scattered Clouds,140,2013-10-29 20:55:00
4:15 PM,69.8,55.4,60,30.14,10.0,ESE,5.8,-,N/A,,Mostly Cloudy,120,2013-10-29 21:15:00
4:35 PM,69.8,55.4,60,30.13,10.0,ESE,5.8,-,N/A,,Mostly Cloudy,110,2013-10-29 21:35:00
4:55 PM,69.8,55.4,60,30.13,10.0,East,4.6,-,N/A,,Partly Cloudy,100,2013-10-29 21:55:00
5:15 PM,69.8,55.4,60,30.13,10.0,ESE,3.5,-,N/A,,Partly Cloudy,110,2013-10-29 22:15:00
5:35 PM,68.0,55.4,64,30.13,10.0,Calm,Calm,-,N/A,,Mostly Cloudy,0,2013-10-29 22:35:00
5:55 PM,66.2,55.4,68,30.14,10.0,NE,3.5,-,N/A,,Mostly Cloudy,40,2013-10-29 22:55:00
6:15 PM,66.2,55.4,68,30.14,10.0,ENE,4.6,-,N/A,,Mostly Cloudy,60,2013-10-29 23:15:00
6:35 PM,64.4,55.4,73,30.15,10.0,Calm,Calm,-,N/A,,Mostly Cloudy,0,2013-10-29 23:35:00
6:55 PM,66.2,55.4,68,30.16,10.0,Calm,Calm,-,N/A,,Overcast,0,2013-10-29 23:55:00
7:15 PM,64.4,55.4,73,30.16,9.0,Calm,Calm,-,N/A,,Overcast,0,2013-10-30 00:15:00
7:35 PM,64.4,55.4,73,30.15,8.0,Calm,Calm,-,N/A,,Overcast,0,2013-10-30 00:35:00
7:55 PM,64.4,55.4,73,30.15,10.0,SSE,4.6,-,N/A,,Overcast,150,2013-10-30 00:55:00
8:15 PM,64.4,55.4,73,30.14,10.0,SE,4.6,-,N/A,,Overcast,140,2013-10-30 01:15:00
8:35 PM,66.2,55.4,68,30.14,10.0,SSE,4.6,-,N/A,,Overcast,150,2013-10-30 01:35:00
8:55 PM,66.2,55.4,68,30.14,10.0,South,4.6,-,N/A,,Partly Cloudy,170,2013-10-30 01:55:00
9:15 PM,66.2,57.2,73,30.14,10.0,SSE,4.6,-,N/A,,Clear,160,2013-10-30 02:15:00
9:35 PM,66.2,57.2,73,30.14,10.0,SSE,3.5,-,N/A,,Clear,160,2013-10-30 02:35:00
9:55 PM,66.2,57.2,73,30.14,10.0,South,5.8,-,N/A,,Clear,180,2013-10-30 02:55:00
10:15 PM,66.2,57.2,73,30.15,10.0,South,5.8,-,N/A,,Clear,170,2013-10-30 03:15:00
10:35 PM,66.2,57.2,73,30.15,10.0,South,4.6,-,N/A,,Clear,170,2013-10-30 03:35:00
10:55 PM,66.2,57.2,73,30.15,10.0,South,6.9,-,N/A,,Scattered Clouds,170,2013-10-30 03:55:00
11:15 PM,66.2,55.4,68,30.15,10.0,South,5.8,-,N/A,,Mostly Cloudy,190,2013-10-30 04:15:00
11:35 PM,66.2,55.4,68,30.15,10.0,South,5.8,-,N/A,,Mostly Cloudy,190,2013-10-30 04:35:00
11:55 PM,66.2,55.4,68,30.15,10.0,South,8.1,-,N/A,,Scattered Clouds,190,2013-10-30 04:55:00